Regional Weather Roundup
Issued by NWS

Home | Current Version | Previous Version | Graphics & Text | Print | Product List | Glossary On
Versions: 1 2 3 4 5 6 7 8 9 10 11 12 13 14 15 16 17 18 19 20 21 22 23 24 25 26 27 28 29 30 31 32 33 34 35 36 37 38 39 40 41 42 43 44 45 46 47 48 49 50
000
ASUS45 KABQ 240001
RWRNM
WEATHER ROUNDUP FOR NEW MEXICO
NATIONAL WEATHER SERVICE ALBUQUERQUE NM
600 PM MDT TUE SEP 23 2014

NOTE: "FAIR" MEANS FEW OR NO CLOUDS BELOW 12,000 FEET AGL WITH NO
       SIGNIFICANT WEATHER OR OBSTRUCTIONS TO VISION.

      THIS PRODUCT IS RELEASED AS TWO VERSIONS.  ONE VERSION NEAR
      THE TOP OF THE HOUR CONTAINING PRELIMINARY DATA FROM ALBUQUERQUE
      AND OTHER STATIONS.  A FINAL VERSION WITH ADDITIONAL DATA IS
      ISSUED ABOUT 10 MINUTES AFTER THE HOUR.

NMZ501-503-504-510>518-240100-
NORTHWEST PLATEAU/NORTHCENTRAL MOUNTAINS

CITY           SKY/WX    TMP DP  RH WIND       PRES   REMARKS
FARMINGTON     SUNNY     82  31  15 NW10      30.16S
6HR MIN TEMP:  74; 6HR MAX TEMP:  84;

LOS ALAMOS     PTSUNNY   72  47  41 NE7       30.26S
SANTA FE       MOSUNNY   79  45  29 SW14G22   30.17F
6HR MIN TEMP:  70; 6HR MAX TEMP:  81;

TAOS           MOSUNNY   75  34  22 W12       30.25S
ANGEL FIRE     FAIR      67  35  31 W9        30.34S

$$
NMZ402-403-502-505>509-240100-
WESTCENTRAL MOUNTAINS/SOUTHWEST MOUNTAINS

CITY           SKY/WX    TMP DP  RH WIND       PRES   REMARKS
GALLUP         SUNNY     78  39  24 VRB3      30.22F
6HR MIN TEMP:  74; 6HR MAX TEMP:  81;

GRANTS         MOSUNNY   75  36  23 NW7       30.23S
SILVER CITY    MOSUNNY   77  57  50 S5        30.18F

$$
NMZ407-409-411-412-240100-
SOUTHERN DESERTS

CITY           SKY/WX    TMP DP  RH WIND       PRES   REMARKS
LORDSBURG      FAIR      81  59  47 MISG      30.08S
DEMING         MOSUNNY   81  58  45 S3        30.09S
6HR MIN TEMP:  74; 6HR MAX TEMP:  83;

LAS CRUCES     SUNNY     80  60  50 E7        30.12S
HOLLOMAN AFB   MOSUNNY   81  60  48 CALM      30.08S
ALAMOGORDO     MOSUNNY   81  59  47 SW3       30.11R
T OR C         MOSUNNY   79  60  52 SW5       30.13R
6HR MIN TEMP:  73; 6HR MAX TEMP:  81;


$$
NMZ519>523-240100-
CENTRAL VALLEYS/CENTRAL HIGHLANDS

CITY           SKY/WX    TMP DP  RH WIND       PRES   REMARKS
ALBUQUERQUE    MOSUNNY   80  53  39 S8        30.14F
6HR MIN TEMP:  71; 6HR MAX TEMP:  81;

DOUBLE EAGLE   MOSUNNY   79  52  38 SW9       30.18F
CLINES CORNERS MOSUNNY   74  47  38 SW8       30.23F
6HR MIN TEMP:  69; 6HR MAX TEMP:  77;

BELEN          FAIR      80  54  40 S8        30.14S
6HR MIN TEMP:  73; 6HR MAX TEMP:  81;

SOCORRO        FAIR      77  59  53 SE8       30.12F
6HR MIN TEMP:  73; 6HR MAX TEMP:  79;


$$
NMZ524>526-539-540-240100-
SOUTHCENTRAL MOUNTAINS

CITY           SKY/WX    TMP DP  RH WIND       PRES   REMARKS
RUIDOSO        NOT AVBL

$$
NMZ527>531-240100-
NORTHEAST HIGHLANDS/NORTHEAST PLAINS

CITY           SKY/WX    TMP DP  RH WIND       PRES   REMARKS
LAS VEGAS      MOSUNNY   72  51  47 SE7       30.22S
6HR MIN TEMP:  69; 6HR MAX TEMP:  77;

RATON          MOCLDY    76  46  34 CALM      30.16S
6HR MIN TEMP:  72; 6HR MAX TEMP:  80;

CLAYTON        CLEAR     79  54  41 S15       30.07S
6HR MIN TEMP:  77; 6HR MAX TEMP:  84;


$$
NMZ532>537-240100-
EASTCENTRAL PLAINS

CITY           SKY/WX    TMP DP  RH WIND       PRES   REMARKS
TUCUMCARI      CLEAR     81  56  42 S13       30.05F
6HR MIN TEMP:  79; 6HR MAX TEMP:  84;

CANNON AFB     CLEAR     76  58  52 S13       30.12S
6HR MIN TEMP:  76; 6HR MAX TEMP:  81;

CLOVIS AIRPORT   N/A     75  57  53 S17       30.14S

$$
NMZ028-029-538-240100-
SOUTHEAST PLAINS

CITY           SKY/WX    TMP DP  RH WIND       PRES   REMARKS
ROSWELL        MOSUNNY   78  62  57 S13       30.09S
6HR MIN TEMP:  73; 6HR MAX TEMP:  80;

CARLSBAD       MOSUNNY   77  70  79 SE9       30.07S
6HR MIN TEMP:  75; 6HR MAX TEMP:  83;

HOBBS          CLOUDY    75  63  64 S8        30.12F


$$



USA.gov is the U.S. government's official web portal to all federal, state and local government web resources and services.